Taunton, MA

8:52 AM EDT on September 26, 2017 (GMT -0400)
Taunton Municipal

Weather History for KTAN - January, 2012

Change the Weather History Date:

Monday, January 16, 2012

  Actual Average Record
Temperature  
Mean Temperature 21 °F -  
Max Temperature 39 °F 34 °F 58 °F (1953)
Min Temperature 3 °F 12 °F -7 °F (2004)
Degree Days  
Heating Degree Days 44    
Moisture  
Dew Point 12 °F    
Average Humidity 68    
Maximum Humidity 100    
Minimum Humidity 33    
Precipitation  
Precipitation 0.06 in - - ()
Sea Level Pressure  
Sea Level Pressure 30.41 in    
Wind  
Wind Speed 4 mph (SW)    
Max Wind Speed 14 mph    
Max Gust Speed 21 mph    
Visibility 9 miles    
Events Rain , Snow    
Averages and records for this station are not official NWS values.
T = Trace of Precipitation, MM = Missing Value Source: NWS Daily Summary

Daily Weather History Graph

Daily Weather History Graph

Search for Another Location

Airport or City:

Trip Planner

Search our weather history database for the weather conditions in past years. The results will help you decide how hot, cold, wet, or windy it might be!

Date:

Astronomy

Jan. 16, 2012 Rise Set
Actual Time 7:09 AM EST 4:38 PM EST
Civil Twilight 6:38 AM EST 5:09 PM EST
Nautical Twilight 6:03 AM EST 5:43 PM EST
Astronomical Twilight 5:30 AM EST 6:17 PM EST
Moon 12:12 AM EST (1/16) 10:52 AM EST (1/16)
Length of Visible Light 10h 31m
Length of Day
9h 29m
Waning Gibbous, 46% of the Moon is Illuminated
Jan 16
Waning Gibbous
Jan 23
New
Jan 30
First Quarter
Feb 7
Full
Feb 14
Last Quarter

Hourly Weather History & Observations

Time (EST) Temp. Windchill Dew Point Humidity Pressure Visibility Wind Dir Wind Speed Gust Speed Precip Events Conditions
12:52 AM 9.0 °F 0.6 °F -2.9 °F 59% 30.52 in 10.0 mi WNW 4.6 mph - N/A   Clear
1:52 AM 9.0 °F 2.4 °F -2.9 °F 59% 30.53 in 10.0 mi WNW 3.5 mph - N/A   Clear
2:52 AM 3.9 °F - -0.0 °F 84% 30.54 in 10.0 mi Calm Calm - N/A   Clear
3:52 AM 5.0 °F - -0.0 °F 80% 30.55 in 10.0 mi Calm Calm - N/A   Clear
4:52 AM 3.9 °F - -0.0 °F 84% 30.55 in 10.0 mi Calm Calm - N/A   Clear
5:52 AM 3.0 °F - -0.9 °F 84% 30.57 in 10.0 mi Calm Calm - N/A   Clear
7:52 AM 8.1 °F - 3.0 °F 80% 30.59 in 10.0 mi Calm Calm - N/A   Clear
8:52 AM 12.9 °F - 3.0 °F 65% 30.59 in 10.0 mi Calm Calm - N/A   Clear
9:52 AM 17.1 °F - 1.9 °F 52% 30.59 in 10.0 mi Calm Calm - N/A   Clear
10:52 AM 21.0 °F 16.2 °F 3.0 °F 46% 30.55 in 10.0 mi South 3.5 mph - N/A   Clear
12:52 PM 28.0 °F 21.7 °F 1.9 °F 33% 30.48 in 10.0 mi South 5.8 mph - 0.00 in   Clear
1:52 PM 28.0 °F 20.0 °F 3.9 °F 36% 30.45 in 10.0 mi South 8.1 mph - N/A   Clear
2:52 PM 28.0 °F 20.0 °F 8.1 °F 43% 30.41 in 10.0 mi SSW 8.1 mph - N/A   Clear
3:52 PM 27.0 °F 16.7 °F 9.0 °F 47% 30.40 in 10.0 mi South 11.5 mph 17.3 mph N/A   Clear
4:52 PM 28.0 °F 22.8 °F 15.1 °F 58% 30.38 in 10.0 mi South 4.6 mph - N/A   Clear
5:52 PM 27.0 °F - 16.0 °F 63% 30.36 in 10.0 mi Calm Calm - N/A   Clear
6:52 PM 23.0 °F - 17.1 °F 78% 30.30 in 10.0 mi Calm Calm - N/A   Mostly Cloudy
7:52 PM 34.0 °F 28.0 °F 24.1 °F 67% 30.27 in 10.0 mi SSW 6.9 mph - N/A   Overcast
8:52 PM 37.0 °F 30.4 °F 27.0 °F 67% 30.23 in 10.0 mi SSW 9.2 mph 16.1 mph N/A   Overcast
9:52 PM 39.0 °F 31.0 °F 28.0 °F 65% 30.21 in 10.0 mi SW 13.8 mph 18.4 mph N/A   Overcast
11:19 PM 35.6 °F 28.0 °F 32.0 °F 87% 30.19 in 7.0 mi SW 10.4 mph 20.7 mph 0.01 in Rain Light Rain
11:39 PM 33.8 °F 27.0 °F 33.8 °F 100% 30.18 in 4.0 mi SW 8.1 mph 20.7 mph 0.03 in Snow Light Snow
11:47 PM 33.8 °F 27.0 °F 33.8 °F 100% 30.17 in 1.8 mi SW 8.1 mph - 0.05 in Snow Light Snow
11:52 PM 33.1 °F 25.5 °F 33.1 °F 100% 30.17 in 1.5 mi SW 9.2 mph 16.1 mph 0.06 in Snow Light Snow